This is the latest recevied weather packets stored in our database for station/object F4AMY-13. If no packets are shown the sender has not sent any weather packets the latest 10 day(s).
| Time | Temp. | Humidity | Pressure | Rain* | Wind** | Luminosity | Snow |
|---|---|---|---|---|---|---|---|
| 1777845417 | 15.56° C | 54% | 1015.1 hPa | 0 mm | 0 m/s | 0 W/m² | - |
| 1777845116 | 15.56° C | 54% | 1015 hPa | 0 mm | 0 m/s | 0 W/m² | - |
| 1777844816 | 15.56° C | 54% | 1015.1 hPa | 0 mm | 0 m/s | 0 W/m² | - |
| 1777844516 | 15.56° C | 52% | 1015.2 hPa | 0 mm | 0 m/s | 0 W/m² | - |
| 1777844216 | 15.56° C | 53% | 1014.8 hPa | 0 mm | 0 m/s | 0 W/m² | - |
| 1777843916 | 15.56° C | 53% | 1014.8 hPa | 0 mm | 0 m/s | 0 W/m² | - |
| 1777843616 | 15.56° C | 51% | 1014.8 hPa | 0 mm | 0 m/s | 0 W/m² | - |
| 1777843316 | 15.56° C | 51% | 1014.8 hPa | 0 mm | 0 m/s | 0 W/m² | - |
| 1777843016 | 15.56° C | 49% | 1015 hPa | 0 mm | 0 m/s | 0 W/m² | - |
| 1777842716 | 15.56° C | 47% | 1015 hPa | 0 mm | 0 m/s | 0 W/m² | - |
| 1777842416 | 15.56° C | 50% | 1014.8 hPa | 0 mm | 0 m/s | 0 W/m² | - |
| 1777842116 | 15.56° C | 44% | 1014.9 hPa | 0 mm | 0 m/s | 0 W/m² | - |
| 1777841816 | 15.56° C | 48% | 1015.2 hPa | 0 mm | 0 m/s | 0 W/m² | - |
| 1777841516 | 15.56° C | 45% | 1014.9 hPa | 0 mm | 0 m/s | 0 W/m² | - |
| 1777841216 | 15.56° C | 46% | 1014.9 hPa | 0 mm | 0 m/s | 0 W/m² | - |
| 1777840916 | 15.56° C | 46% | 1014.8 hPa | 0 mm | 0 m/s | 0 W/m² | - |
| 1777840616 | 15.56° C | 46% | 1015 hPa | 0 mm | 0 m/s | 0 W/m² | - |
| 1777840316 | 17.22° C | 56% | 1014.9 hPa | 0 mm | 0 m/s | 0 W/m² | - |
| 1777832419 | 17.22° C | 56% | 1014.7 hPa | 0 mm | 0 m/s | 0 W/m² | - |
| 1777832119 | 17.22° C | 54% | 1014.7 hPa | 0 mm | 0 m/s | 0 W/m² | - |
| 1777831819 | 17.78° C | 54% | 1014.4 hPa | 0 mm | 0 m/s | 0 W/m² | - |
| 1777831518 | 17.78° C | 53% | 1014.6 hPa | 0 mm | 0 m/s | 0 W/m² | - |
| 1777831218 | 17.78° C | 53% | 1014.6 hPa | 0 mm | 0 m/s | 0 W/m² | - |
| 1777830918 | 17.78° C | 53% | 1014.7 hPa | 0 mm | 0 m/s | 0 W/m² | - |
| 1777830618 | 17.78° C | 50% | 1015 hPa | 0 mm | 0 m/s | 0 W/m² | - |
* Rain latest hour (hover to see other rain measurements)
** Current wind speed in m/s (hover to see current wind gust speed)